Rolla, ND

3:08 AM CST on January 22, 2017 (GMT -0600)
Rolla

Weather History for K06D - September, 2013

Change the Weather History Date:

Saturday, September 14, 2013

  Actual Average (KRUG) Record (KRUG)
Temperature  
Mean Temperature 58 °F -  
Max Temperature 69 °F 69 °F 88 °F (1959)
Min Temperature 46 °F 44 °F 26 °F (1949)
Degree Days  
Heating Degree Days 8    
Growing Degree Days 8 (Base 50)    
Moisture  
Dew Point 50 °F    
Average Humidity 71    
Maximum Humidity 100    
Minimum Humidity 52    
Precipitation  
Precipitation 0.02 in - - ()
Sea Level Pressure  
Sea Level Pressure 29.91 in    
Wind  
Wind Speed 12 mph (North)    
Max Wind Speed 28 mph    
Max Gust Speed 34 mph    
Visibility 10 miles    
Events Rain    
Averages and records for this station are not official NWS values.
T = Trace of Precipitation, MM = Missing Value Source: NWS Daily Summary

Daily Weather History Graph

Daily Weather History Graph

Search for Another Location

Airport or City:

Trip Planner

Search our weather history database for the weather conditions in past years. The results will help you decide how hot, cold, wet, or windy it might be!

Date:

Astronomy

Sep. 14, 2013 Rise Set
Actual Time 7:14 AM CDT 7:52 PM CDT
Civil Twilight 6:42 AM CDT 8:24 PM CDT
Nautical Twilight 6:04 AM CDT 9:02 PM CDT
Astronomical Twilight 5:24 AM CDT 9:41 PM CDT
Moon 4:54 PM CDT (9/14) 1:26 AM CDT (9/14)
Length of Visible Light 13h 42m
Length of Day
12h 38m
Waxing Gibbous, 72% of the Moon is Illuminated
Sep 14
Waxing Gibbous
Sep 19
Full
Sep 26
Last Quarter
Oct 4
New
Oct 11
First Quarter

Hourly Weather History & Observations

Time (CDT) Temp. Windchill Dew Point Humidity Pressure Visibility Wind Dir Wind Speed Gust Speed Precip Events Conditions
12:15 AM 59.0 °F - 50.0 °F 72% 29.88 in 10.0 mi SW 8.1 mph - N/A   Clear
12:35 AM 59.0 °F - 50.0 °F 72% 29.88 in 10.0 mi SW 9.2 mph - N/A   Clear
12:55 AM 59.0 °F - 50.0 °F 72% 29.87 in 10.0 mi SW 9.2 mph - N/A   Clear
1:15 AM 57.2 °F - 50.0 °F 77% 29.87 in 10.0 mi SSW 8.1 mph - N/A   Partly Cloudy
1:35 AM 57.2 °F - 50.0 °F 77% 29.86 in 10.0 mi SSW 9.2 mph - N/A   Scattered Clouds
1:55 AM 59.0 °F - 50.0 °F 72% 29.86 in 10.0 mi SSW 10.4 mph - N/A   Scattered Clouds
2:15 AM 57.2 °F - 50.0 °F 77% 29.86 in 10.0 mi SSW 9.2 mph - N/A   Partly Cloudy
2:35 AM 57.2 °F - 50.0 °F 77% 29.85 in 10.0 mi SSW 8.1 mph - N/A   Partly Cloudy
2:55 AM 57.2 °F - 50.0 °F 77% 29.84 in 10.0 mi SSW 9.2 mph - N/A   Clear
3:15 AM 57.2 °F - 50.0 °F 77% 29.84 in 10.0 mi SSW 9.2 mph - N/A   Clear
3:35 AM 59.0 °F - 48.2 °F 67% 29.83 in 10.0 mi SW 10.4 mph - N/A   Clear
3:55 AM 59.0 °F - 48.2 °F 67% 29.83 in 10.0 mi SW 12.7 mph - N/A   Clear
4:15 AM 59.0 °F - 48.2 °F 67% 29.83 in 10.0 mi SW 13.8 mph - N/A   Clear
4:35 AM 59.0 °F - 48.2 °F 67% 29.82 in 10.0 mi SW 12.7 mph - N/A   Clear
4:55 AM 59.0 °F - 48.2 °F 67% 29.82 in 10.0 mi SW 13.8 mph - N/A   Clear
5:15 AM 59.0 °F - 48.2 °F 67% 29.81 in 10.0 mi SW 12.7 mph - N/A   Clear
5:35 AM 59.0 °F - 48.2 °F 67% 29.81 in 10.0 mi SW 12.7 mph - N/A   Clear
5:55 AM 59.0 °F - 48.2 °F 67% 29.82 in 10.0 mi WSW 11.5 mph - N/A   Clear
6:15 AM 59.0 °F - 48.2 °F 67% 29.82 in 10.0 mi SW 10.4 mph - N/A   Clear
6:35 AM 59.0 °F - 48.2 °F 67% 29.81 in 10.0 mi SW 10.4 mph - N/A   Clear
6:55 AM 59.0 °F - 48.2 °F 67% 29.81 in 10.0 mi SW 11.5 mph - N/A   Clear
7:15 AM 59.0 °F - 48.2 °F 67% 29.81 in 10.0 mi SW 8.1 mph - N/A   Clear
7:35 AM 59.0 °F - 48.2 °F 67% 29.81 in 10.0 mi SW 6.9 mph - N/A   Clear
7:55 AM 59.0 °F - 48.2 °F 67% 29.81 in 10.0 mi WSW 5.8 mph - N/A   Clear
8:15 AM 60.8 °F - 48.2 °F 63% 29.81 in 10.0 mi SSW 9.2 mph - N/A   Clear
8:35 AM 62.6 °F - 50.0 °F 63% 29.83 in 10.0 mi North 12.7 mph 18.4 mph N/A   Clear
8:55 AM 62.6 °F - 50.0 °F 63% 29.84 in 10.0 mi Calm Calm - N/A   Clear
9:15 AM 64.4 °F - 51.8 °F 64% 29.84 in 10.0 mi NNE 3.5 mph - N/A   Partly Cloudy
9:35 AM 64.4 °F - 51.8 °F 64% 29.84 in 10.0 mi NNE 6.9 mph - N/A   Clear
9:55 AM 64.4 °F - 53.6 °F 68% 29.84 in 10.0 mi NNE 8.1 mph - N/A   Clear
10:15 AM 66.2 °F - 53.6 °F 64% 29.84 in 10.0 mi North 13.8 mph - N/A   Clear
10:35 AM 66.2 °F - 53.6 °F 64% 29.84 in 10.0 mi North 11.5 mph - N/A   Clear
10:55 AM 68.0 °F - 53.6 °F 60% 29.84 in 10.0 mi NNE 13.8 mph - N/A   Clear
11:15 AM 68.0 °F - 53.6 °F 60% 29.84 in 10.0 mi NNE 16.1 mph - N/A   Clear
11:35 AM 68.0 °F - 55.4 °F 64% 29.85 in 10.0 mi NE 17.3 mph - N/A   Clear
11:55 AM 68.0 °F - 55.4 °F 64% 29.85 in 10.0 mi NE 18.4 mph 21.9 mph N/A   Clear
12:15 PM 68.0 °F - 55.4 °F 64% 29.86 in 10.0 mi NE 21.9 mph 25.3 mph N/A   Clear
12:35 PM 69.8 °F - 57.2 °F 64% 29.85 in 10.0 mi NNE 23.0 mph 28.8 mph N/A   Scattered Clouds
12:55 PM 68.0 °F - 55.4 °F 64% 29.86 in 10.0 mi NE 20.7 mph 25.3 mph N/A   Overcast
1:15 PM 69.8 °F - 53.6 °F 56% 29.87 in 10.0 mi NE 26.5 mph 34.5 mph N/A   Scattered Clouds
1:35 PM 68.0 °F - 51.8 °F 56% 29.87 in 10.0 mi NE 23.0 mph 31.1 mph N/A   Clear
1:55 PM 68.0 °F - 50.0 °F 52% 29.89 in 10.0 mi NNE 25.3 mph 31.1 mph N/A   Clear
2:15 PM 62.6 °F - 50.0 °F 63% 29.91 in 10.0 mi NNE 27.6 mph 34.5 mph N/A   Scattered Clouds
2:35 PM 59.0 °F - 50.0 °F 72% 29.91 in 10.0 mi NE 21.9 mph 32.2 mph N/A Rain Light Rain
2:55 PM 57.2 °F - 53.6 °F 88% 29.92 in 9.0 mi NE 18.4 mph 25.3 mph N/A   Mostly Cloudy
3:15 PM 55.4 °F - 55.4 °F 100% 29.94 in 10.0 mi NNE 10.4 mph - N/A Rain Light Rain
3:35 PM 57.2 °F - 57.2 °F 100% 29.94 in 10.0 mi NE 9.2 mph - 0.02 in   Clear
3:55 PM 57.2 °F - 57.2 °F 100% 29.94 in 10.0 mi NE 10.4 mph - 0.02 in   Clear
4:15 PM 59.0 °F - 57.2 °F 94% 29.95 in 10.0 mi NE 9.2 mph - N/A   Clear
4:35 PM 59.0 °F - 57.2 °F 94% 29.95 in 10.0 mi NE 8.1 mph - N/A   Clear
4:55 PM 62.6 °F - 55.4 °F 77% 29.95 in 10.0 mi NE 10.4 mph - N/A   Clear
5:15 PM 64.4 °F - 55.4 °F 73% 29.95 in 10.0 mi NE 10.4 mph - N/A   Clear
5:35 PM 66.2 °F - 48.2 °F 52% 29.96 in 10.0 mi NE 18.4 mph 26.5 mph N/A   Clear
5:55 PM 66.2 °F - 48.2 °F 52% 29.97 in 10.0 mi NE 23.0 mph 28.8 mph N/A   Clear
6:15 PM 64.4 °F - 46.4 °F 52% 29.98 in 10.0 mi NNE 20.7 mph 27.6 mph N/A   Clear
6:35 PM 64.4 °F - 48.2 °F 56% 29.98 in 10.0 mi NNE 18.4 mph 24.2 mph N/A   Clear
6:55 PM 62.6 °F - 48.2 °F 59% 30.00 in 10.0 mi NNE 16.1 mph 27.6 mph N/A   Partly Cloudy
7:15 PM 62.6 °F - 48.2 °F 59% 30.00 in 10.0 mi NNE 18.4 mph 23.0 mph N/A   Clear
7:35 PM 59.0 °F - 48.2 °F 67% 30.01 in 10.0 mi NNE 19.6 mph 27.6 mph N/A   Clear
7:55 PM 57.2 °F - 46.4 °F 67% 30.02 in 10.0 mi NNE 18.4 mph - N/A   Clear
8:15 PM 57.2 °F - 46.4 °F 67% 30.03 in 10.0 mi NNE 20.7 mph 24.2 mph N/A   Clear
8:35 PM 55.4 °F - 46.4 °F 72% 30.05 in 10.0 mi NNE 16.1 mph - N/A   Clear
8:55 PM 53.6 °F - 46.4 °F 77% 30.06 in 10.0 mi NNE 18.4 mph - N/A   Clear
9:15 PM 51.8 °F - 46.4 °F 82% 30.07 in 10.0 mi NNE 19.6 mph - N/A   Clear
9:35 PM 50.0 °F - 46.4 °F 87% 30.09 in 10.0 mi NNE 18.4 mph - N/A   Clear
9:55 PM 50.0 °F - 44.6 °F 82% 30.10 in 10.0 mi NNE 18.4 mph - N/A   Clear
10:15 PM 48.2 °F - 44.6 °F 87% 30.11 in 10.0 mi NNE 16.1 mph 20.7 mph N/A   Clear
10:35 PM 48.2 °F - 44.6 °F 87% 30.12 in 10.0 mi North 12.7 mph - N/A   Clear
10:55 PM 46.4 °F 40.4 °F 44.6 °F 93% 30.13 in 10.0 mi North 13.8 mph - N/A   Mostly Cloudy
11:15 PM 48.2 °F - 44.6 °F 87% 30.14 in 10.0 mi North 13.8 mph - N/A   Overcast
11:35 PM 46.4 °F 40.4 °F 44.6 °F 93% 30.14 in 10.0 mi North 13.8 mph - N/A   Mostly Cloudy
11:55 PM 46.4 °F 40.1 °F 44.6 °F 93% 30.15 in 10.0 mi North 15.0 mph - N/A   Mostly Cloudy